KA5FVT Weather Reports


Display with metric or nautical units.
time (UTC)temp
F
wind
direction
speed
MPH
gust
MPH
rain 1hr
in
rain 24hr
in
rain mn
in
humidity
%
barometer
mb
20260502162926 69 236 1.0 2.0 0.00 0.78 0.00 61 1020.7
20260502162429 68 0 1.0 3.0 0.00 0.80 0.00 60 1020.6
20260502161927 67 177 1.0 3.0 0.00 0.83 0.00 65 1020.6
20260502161429 67 327 1.0 4.0 0.00 0.86 0.00 62 1020.6
20260502160926 67 337 2.0 5.0 0.00 0.88 0.00 63 1020.5
20260502160426 67 314 2.0 2.0 0.00 0.89 0.00 66 1020.4
20260502151926 64 252 0.0 2.0 0.00 0.94 0.00 77 1020.3
20260502151426 63 32 0.0 2.0 0.00 0.94 0.00 78 1020.2
20260502150926 63 30 1.0 3.0 0.00 0.94 0.00 78 1020.2
20260502150429 62 320 1.0 2.0 0.00 0.94 0.00 78 1020.3
20260502130426 55 338 1.0 2.0 0.00 1.36 0.00 91 1019.1
20260502123429 54 195 0.0 2.0 0.00 1.43 0.00 93 1018.6
20260502122926 54 184 0.0 0.0 0.00 1.46 0.00 93 1018.5
20260502122426 54 184 0.0 1.0 0.00 1.47 0.00 93 1018.6
20260502121926 54 184 0.0 0.0 0.00 1.48 0.00 94 1018.5
20260502121429 54 183 0.0 0.0 0.00 1.49 0.00 93 1018.4
20260502120930 54 184 0.0 0.0 0.00 1.49 0.00 93 1018.4
20260502120426 54 184 0.0 0.0 0.00 1.50 0.00 93 1018.2
20260502115926 54 184 0.0 0.0 0.00 1.52 0.00 93 1018.2
20260502115426 54 184 0.0 0.0 0.00 1.63 0.00 94 1018.1
20260502114926 54 184 0.0 0.0 0.00 1.68 0.00 94 1018.0
20260502114426 54 184 0.0 0.0 0.00 1.72 0.00 94 1018.1
20260502113926 53 184 0.0 1.0 0.00 1.75 0.00 94 1018.0
20260502113427 54 184 0.0 0.0 0.00 1.76 0.00 93 1018.1
20260502112929 53 184 0.0 0.0 0.00 1.78 0.00 94 1017.9
20260502112426 54 184 0.0 0.0 0.00 1.80 0.00 94 1017.8
20260502111926 53 184 0.0 0.0 0.00 1.80 0.00 93 1017.8
20260502111426 54 184 0.0 0.0 0.00 1.80 0.00 93 1017.8
20260502110929 54 184 0.0 0.0 0.00 1.81 0.00 93 1017.8
20260502110426 54 184 0.0 0.0 0.00 1.84 0.00 93 1017.7
20260502105927 54 184 0.0 1.0 0.00 1.89 0.00 93 1017.6
20260502105426 54 184 0.0 0.0 0.00 1.93 0.00 93 1017.6
20260502104926 54 183 0.0 1.0 0.00 1.93 0.00 93 1017.5
20260502104426 54 183 0.0 0.0 0.00 1.93 0.00 93 1017.5
20260502103926 54 183 0.0 0.0 0.00 1.93 0.00 93 1017.4
20260502103426 54 183 0.0 0.0 0.00 1.93 0.00 93 1017.3
20260502102926 54 183 0.0 0.0 0.00 1.94 0.00 93 1017.4
20260502102429 54 183 0.0 0.0 0.00 1.97 0.00 93 1017.3
20260502101929 54 183 0.0 0.0 0.00 2.09 0.00 93 1017.2
20260502101429 54 183 0.0 0.0 0.00 2.10 0.00 93 1017.1
20260502100926 54 183 0.0 0.0 0.00 2.10 0.00 93 1016.9
20260502100426 54 183 0.0 0.0 0.00 2.11 0.00 93 1016.9
20260502091426 54 182 0.0 0.0 0.00 2.61 0.00 93 1016.1
20260502090926 54 182 0.0 0.0 0.00 2.62 0.00 93 1016.0
20260502090429 54 182 0.0 0.0 0.00 2.63 0.00 93 1015.9
20260502071426 55 185 0.0 0.0 0.00 3.44 0.00 94 1015.9
20260502070927 55 185 0.0 2.0 0.00 3.44 0.00 94 1016.0
20260502070426 55 177 0.0 1.0 0.00 3.44 0.00 95 1016.0
20260502065926 55 167 0.0 1.0 0.00 3.44 0.00 95 1016.0
20260502065427 55 126 0.0 1.0 0.00 3.44 0.00 95 1015.8
20260502064926 55 126 0.0 0.0 0.00 3.44 0.00 95 1015.6
20260502064429 55 126 0.0 0.0 0.00 3.44 0.00 95 1015.7
20260502063926 55 126 0.0 0.0 0.00 3.44 0.00 95 1015.7
20260502063426 55 126 0.0 2.0 0.00 3.44 0.00 95 1015.6
20260502062926 55 351 0.0 2.0 0.00 3.44 0.00 95 1015.6
20260502062426 55 351 0.0 1.0 0.00 3.44 0.00 95 1015.6
20260502061926 55 351 0.0 1.0 0.00 3.44 0.00 95 1015.6
20260502061426 56 351 0.0 1.0 0.00 3.44 0.00 95 1015.5
20260502060926 56 221 0.0 1.0 0.00 3.44 0.00 95 1015.5
20260502060427 56 221 0.0 0.0 0.00 3.44 0.00 95 1015.5
20260502055926 56 221 0.0 1.0 0.00 3.44 0.00 95 1015.5
20260502055426 56 221 0.0 1.0 0.00 3.47 0.00 95 1015.6
20260502054927 56 219 0.0 2.0 0.00 3.49 0.00 95 1015.6
20260502054426 56 310 1.0 1.0 0.00 3.51 0.00 95 1015.5
20260502053926 56 299 0.0 3.0 0.00 3.51 0.00 95 1015.4
20260502053426 56 287 0.0 2.0 0.00 3.51 0.00 95 1015.5
20260502052926 56 291 1.0 1.0 0.00 3.51 0.00 95 1015.5
20260502052426 56 291 0.0 2.0 0.00 3.51 0.00 95 1015.6
20260502051926 56 291 0.0 2.0 0.00 3.52 0.00 95 1015.4
20260502051429 56 178 0.0 1.0 0.00 3.52 0.00 95 1015.4
20260502050927 56 321 0.0 2.0 0.00 3.56 0.00 95 1015.4
20260502050426 56 321 0.0 2.0 0.00 3.66 0.00 95 1015.4
20260502045926 56 321 0.0 2.0 0.00 3.76 0.00 95 1015.4
20260502045426 56 321 0.0 2.0 0.00 3.91 0.00 96 1015.5
20260502044926 56 321 0.0 0.0 0.00 3.95 0.00 96 1015.4
20260502044427 56 321 0.0 2.0 0.00 3.95 0.00 96 1015.4
20260502043927 56 348 0.0 3.0 0.00 3.95 0.00 96 1015.4
20260502043426 56 348 0.0 1.0 0.00 3.95 0.00 96 1015.2
20260502042926 56 349 0.0 2.0 0.00 3.95 0.00 95 1015.2
20260502042426 56 236 1.0 2.0 0.00 3.95 0.00 96 1015.1
20260502041926 56 161 0.0 2.0 0.00 3.95 0.00 95 1015.2
20260502041426 56 30 0.0 2.0 0.00 3.95 0.00 95 1015.3
20260502040930 56 77 0.0 2.0 0.00 3.95 0.00 96 1015.5
20260502040426 56 317 1.0 4.0 0.00 3.95 0.00 96 1015.6
20260502035926 56 350 0.0 2.0 0.00 3.95 0.00 96 1015.6
20260502035426 56 350 0.0 2.0 0.00 3.95 0.00 96 1015.5
20260502034926 56 5 0.0 1.0 0.00 3.95 0.00 96 1015.4
20260502034426 56 0 0.0 2.0 0.00 3.95 0.00 96 1015.2
20260502033926 56 294 0.0 3.0 0.00 3.95 0.00 96 1015.1
20260502033426 56 326 0.0 2.0 0.00 3.95 0.00 96 1015.0
20260502032927 56 326 1.0 3.0 0.00 3.95 0.00 95 1014.9
20260502032426 56 325 1.0 2.0 0.01 3.95 0.00 96 1014.9
20260502031929 56 325 0.0 2.0 0.01 3.95 0.00 95 1014.9
20260502031426 56 325 0.0 3.0 0.02 3.95 0.00 95 1014.8
20260502030926 56 323 0.0 4.0 0.03 3.95 0.00 95 1014.4
20260502030426 56 0 0.0 3.0 0.04 3.95 0.00 95 1014.5
20260502025930 56 309 1.0 3.0 0.04 3.95 0.00 96 1014.3
20260502025427 57 255 0.0 0.0 0.05 3.95 0.00 96 1014.1
20260502024926 57 253 0.0 1.0 0.05 3.95 0.00 96 1013.9
20260502024426 57 251 0.0 2.0 0.06 3.95 0.00 96 1013.8
20260502023929 57 296 0.0 1.0 0.06 3.95 0.00 96 1013.7
20260502023427 57 296 0.0 1.0 0.07 3.95 0.00 96 1013.8
20260502022926 57 296 0.0 1.0 0.08 3.95 0.00 96 1013.9
20260502022426 57 294 0.0 2.0 0.09 3.94 0.00 96 1014.1
20260502021927 57 294 0.0 0.0 0.10 3.94 0.00 96 1013.7
20260502021426 57 294 0.0 2.0 0.10 3.93 0.00 96 1013.5
20260502020926 57 294 0.0 2.0 0.10 3.92 0.00 96 1013.5
20260502020426 57 294 0.0 2.0 0.09 3.91 0.00 95 1013.5
20260502015926 57 294 0.0 2.0 0.08 3.90 0.00 95 1013.6
20260502015430 58 290 0.0 3.0 0.09 3.89 0.00 95 1013.4
20260502014926 58 316 0.0 2.0 0.09 3.89 0.00 96 1013.6
20260502014426 58 211 1.0 2.0 0.08 3.88 0.00 96 1013.6
20260502013926 58 197 0.0 1.0 0.08 3.88 0.00 96 1013.2
20260502013426 58 197 1.0 2.0 0.07 3.87 0.00 95 1013.0
20260502012926 58 306 0.0 2.0 0.06 3.86 0.00 95 1012.8
20260502012427 58 306 1.0 2.0 0.04 3.84 0.00 95 1012.8
20260502011926 59 306 0.0 2.0 0.04 3.83 0.00 96 1012.9
20260502011426 59 306 0.0 3.0 0.04 3.82 0.00 96 1012.9
20260502010929 59 322 0.0 1.0 0.04 3.81 0.00 96 1013.2
20260502010426 59 310 0.0 2.0 0.04 3.81 0.00 96 1013.3
20260502005929 59 320 0.0 1.0 0.06 3.81 0.00 96 1013.2
20260502005427 59 320 0.0 3.0 0.07 3.80 0.00 96 1012.3
20260502004926 59 19 0.0 1.0 0.07 3.80 0.00 96 1011.7
20260502004426 59 347 0.0 2.0 0.08 3.80 0.00 96 1011.4
20260502003926 59 355 0.0 1.0 0.08 3.80 0.00 96 1011.4
20260502003426 59 343 0.0 1.0 0.07 3.79 0.00 96 1011.7
20260502002926 59 343 0.0 1.0 0.07 3.79 0.00 96 1012.1
20260502002427 59 343 0.0 1.0 0.09 3.79 0.00 96 1012.4
20260502001926 59 343 0.0 2.0 0.08 3.78 0.00 96 1012.4
20260502001426 59 355 0.0 1.0 0.09 3.78 0.00 96 1012.1
20260502000926 59 114 0.0 1.0 0.13 3.77 0.00 96 1012.0
20260502000426 59 114 0.0 1.0 0.14 3.76 0.00 96 1012.4
20260501235927 59 284 0.0 1.0 0.13 3.74 0.00 96 1012.5
20260501235426 59 284 0.0 1.0 0.14 3.72 0.00 96 1012.2
20260501234926 59 284 1.0 3.0 0.14 3.72 0.00 96 1011.9
20260501234426 60 254 0.0 0.0 0.13 3.71 0.00 96 1011.5
20260501233926 60 254 0.0 1.0 0.13 3.71 0.00 96 1011.5
20260501233429 60 253 1.0 2.0 0.13 3.71 0.00 96 1011.2
20260501232927 60 252 0.0 2.0 0.13 3.71 0.00 96 1011.2
20260501232427 60 259 1.0 2.0 0.11 3.70 0.00 96 1010.7
20260501231929 60 196 0.0 2.0 0.11 3.70 0.00 96 1010.3
20260501231426 60 292 0.0 1.0 0.09 3.68 0.00 96 1010.7
20260501230927 60 292 0.0 1.0 0.06 3.64 0.00 96 1011.6
20260501230426 60 292 0.0 2.0 0.03 3.61 0.00 96 1012.0
20260501225929 60 303 0.0 3.0 0.02 3.60 0.00 96 1011.3
20260501225430 60 152 1.0 2.0 0.01 3.58 0.00 96 1010.2
20260501224929 60 182 0.0 2.0 0.01 3.58 0.00 96 1010.7
20260501224426 61 170 0.0 2.0 0.01 3.58 0.00 96 1010.0
20260501223926 61 119 0.0 1.0 0.01 3.58 0.00 96 1009.5
20260501223426 61 102 0.0 1.0 0.02 3.58 0.00 96 1009.6
20260501222926 61 53 0.0 2.0 0.03 3.58 0.00 96 1009.6
20260501222427 61 53 0.0 2.0 0.03 3.58 0.00 96 1009.6
20260501221926 61 340 0.0 0.0 0.03 3.58 0.00 96 1009.9
20260501221426 61 300 0.0 1.0 0.03 3.58 0.00 96 1010.1
20260501220926 61 301 0.0 2.0 0.03 3.58 0.00 96 1010.4
20260501220426 61 305 0.0 2.0 0.04 3.58 0.00 96 1010.6
20260501215926 61 305 0.0 2.0 0.04 3.58 0.00 96 1010.8
20260501215427 61 153 0.0 0.0 0.03 3.57 0.00 96 1011.1
20260501214926 61 153 0.0 1.0 0.04 3.57 0.00 96 1010.9
20260501214426 61 246 0.0 0.0 0.04 3.57 0.00 96 1011.3
20260501213926 61 246 0.0 0.0 0.05 3.57 0.00 96 1011.0
20260501213426 62 246 0.0 1.0 0.05 3.56 0.00 96 1010.9
20260501212926 62 246 0.0 1.0 0.05 3.55 0.00 96 1010.8
20260501212426 62 246 0.0 1.0 0.06 3.55 0.00 96 1010.8
20260501211927 62 246 1.0 2.0 0.07 3.55 0.00 96 1010.7
20260501211427 62 236 0.0 1.0 0.07 3.55 0.00 96 1010.0
20260501210926 62 236 0.0 1.0 0.08 3.55 0.00 96 1009.1
20260501210426 62 236 0.0 1.0 0.09 3.54 0.00 96 1009.3
20260501205929 62 237 0.0 1.0 0.10 3.54 0.00 96 1009.7
20260501205427 62 306 0.0 5.0 0.10 3.54 0.00 96 1009.8
20260501204926 62 269 0.0 2.0 0.09 3.53 0.00 96 1009.1
20260501204426 62 238 0.0 1.0 0.09 3.52 0.00 96 1010.7
20260501203930 62 238 0.0 2.0 0.08 3.51 0.00 96 1010.2
20260501203426 62 220 1.0 1.0 0.07 3.50 0.00 96 1009.2
20260501202926 62 221 0.0 1.0 0.06 3.49 0.00 96 1009.6
20260501202426 62 221 0.0 3.0 0.06 3.48 0.00 96 1009.6
20260501201926 62 310 1.0 2.0 0.05 3.47 0.00 96 1009.0
20260501201427 63 309 0.0 2.0 0.05 3.47 0.00 96 1009.0
20260501200926 63 303 1.0 2.0 0.04 3.46 0.00 96 1009.2
20260501200429 63 310 0.0 4.0 0.04 3.44 0.00 96 1009.6
20260501195926 63 290 1.0 1.0 0.03 3.43 0.00 96 1009.6
20260501195427 63 43 0.0 1.0 0.04 3.43 0.00 97 1009.0
20260501194929 63 36 0.0 0.0 0.04 3.43 0.00 97 1009.0
20260501194426 63 36 0.0 1.0 0.05 3.42 0.00 97 1009.0
20260501193926 63 36 1.0 1.0 0.09 3.42 0.00 97 1009.4
20260501193427 63 36 0.0 0.0 0.09 3.42 0.00 97 1009.1
20260501192926 63 36 0.0 1.0 0.10 3.42 0.00 97 1009.3
20260501192426 63 36 0.0 1.0 0.09 3.41 0.00 97 1009.1
20260501191927 63 182 0.0 1.0 0.10 3.41 0.00 97 1008.9
20260501191426 63 182 0.0 1.0 0.13 3.41 0.00 97 1009.4
20260501190926 63 182 0.0 0.0 0.13 3.41 0.00 97 1009.6
20260501190426 63 182 0.0 1.0 0.13 3.40 0.00 97 1009.5
20260501185926 63 182 0.0 1.0 0.13 3.40 0.00 97 1009.2
20260501185426 62 182 0.0 1.0 0.13 3.39 0.00 97 1009.1
20260501184926 62 182 0.0 0.0 0.13 3.38 0.00 97 1009.0
20260501184426 62 182 0.0 1.0 0.10 3.36 0.00 96 1009.3
20260501183932 62 183 0.0 0.0 0.08 3.32 0.00 96 1009.6
20260501183430 62 183 0.0 2.0 0.08 3.32 0.00 96 1009.6
20260501182926 62 177 0.0 4.0 0.07 3.31 0.00 96 1008.4
20260501182426 62 184 4.0 3.0 0.07 3.31 0.00 96 1007.8
20260501181926 62 104 0.0 4.0 0.06 3.30 0.00 96 1007.6
20260501181426 62 115 0.0 1.0 0.05 3.28 0.00 96 1007.5
20260501180926 62 146 0.0 2.0 0.05 3.28 0.00 96 1008.1
20260501180427 62 355 0.0 2.0 0.04 3.27 0.00 96 1008.4
20260501175926 63 219 0.0 1.0 0.04 3.27 0.00 96 1009.5
20260501175426 63 311 0.0 1.0 0.04 3.26 0.00 96 1009.5
20260501174926 63 311 0.0 1.0 0.04 3.25 0.00 96 1009.4
20260501174426 63 311 0.0 1.0 0.05 3.25 0.00 96 1009.9
20260501173926 63 311 0.0 1.0 0.04 3.24 0.00 96 1010.1
20260501173430 63 311 0.0 4.0 0.05 3.24 0.00 96 1010.3
20260501172929 63 295 0.0 2.0 0.06 3.23 0.00 96 1010.1
20260501172429 63 306 1.0 1.0 0.08 3.23 0.00 96 1010.1
20260501171926 63 306 0.0 2.0 0.11 3.23 0.00 96 1010.1
20260501171426 63 306 0.0 2.0 0.14 3.22 0.00 96 1010.3
20260501170926 63 306 0.0 2.0 0.16 3.22 0.00 96 1010.4
20260501170427 63 306 0.0 2.0 0.17 3.22 0.00 96 1010.8
20260501165926 62 306 0.0 1.0 0.18 3.22 0.00 96 1010.5
20260501165426 63 306 1.0 2.0 0.19 3.22 0.00 96 1010.7
20260501164926 63 307 0.0 0.0 0.19 3.21 0.00 96 1011.2
20260501164426 63 307 0.0 1.0 0.17 3.19 0.00 96 1010.9
20260501163926 63 307 0.0 2.0 0.18 3.19 0.00 96 1011.6
20260501163427 63 319 0.0 1.0 0.16 3.18 0.00 96 1011.8